[[{"header":{"parameterUnit":"m.s-1","parameterCategory":1,"la1":30.2991,"la2":30.254,"lo1":-89.0895,"lo2":-89.0444,"dy":0.0017,"dx":0.0017,"nx":28,"ny":28,"refTime":"2025-04-19T21:00:00:Z","depth":0,"parameterNumber":2,"parameterNumberName":"U-component_of_WINDS"},"data":[0,0,0,0,0,0,0,0,0,0,0,0,0,0,0,0,0,0,0,0,0,0,0,0,0,0,0,0,0,0,0,0,0,0,0,0,0,0,0,0,0,0,0,0,0,0,0,0,0,0,0,0,0,0,0,0,0,0,-4.2274,-4.2273,0,-4.2264,-4.2264,-4.2263,-4.2221,-4.222,-4.2219,-4.2218,-4.2207,-4.2207,-4.2208,0,0,0,0,0,0,0,0,0,0,0,0,0,-4.2257,-4.2258,-4.2274,-4.2273,-4.2273,-4.2264,-4.2264,-4.2263,-4.2221,-4.222,-4.2219,-4.2218,-4.2206,-4.2207,-4.2208,0,0,0,0,0,0,0,0,0,0,0,0,0,-4.2258,-4.2258,-4.2274,-4.2251,-4.2249,-4.2264,-4.2264,-4.2263,-4.2222,-4.222,-4.2219,-4.2217,-4.2206,-4.2207,-4.2208,-4.2243,0,0,-4.2211,-4.2211,0,0,0,0,0,0,0,0,-4.2258,-4.2258,-4.2255,-4.2253,-4.2251,-4.2242,-4.2253,-4.2256,-4.2222,-4.2232,-4.2218,-4.2217,-4.222,-4.2219,-4.2221,-4.2242,-4.2242,-4.2211,-4.2211,-4.2212,-4.2212,0,0,0,0,0,0,0,-4.2258,-4.2258,-4.227,-4.2255,-4.2252,-4.2242,-4.2241,-4.2254,-4.2234,-4.2231,-4.2228,-4.2227,-4.2218,-4.222,-4.222,-4.2242,-4.2211,-4.2212,-4.2212,-4.2212,-4.2294,-4.2295,0,0,0,0,0,0,-4.2261,-4.2259,-4.227,-4.2269,-4.2251,-4.2244,-4.2242,-4.2246,-4.2234,-4.2231,-4.2229,-4.2226,-4.2219,-4.2219,-4.2219,-4.226,-4.2212,-4.2213,-4.2213,-4.2292,-4.2294,-4.2296,0,0,0,0,0,0,-4.2261,-4.2262,-4.227,-4.2263,-4.2263,-4.2245,-4.2251,-4.2247,-4.2248,-4.2232,-4.2228,-4.2234,-4.2218,-4.2218,-4.2238,-4.2259,-4.2213,-4.2214,-4.229,-4.2293,-4.2295,-4.234,0,0,0,0,0,0,-4.226,-4.2262,-4.2275,-4.2264,-4.2264,-4.2289,-4.2252,-4.2248,-4.225,-4.2246,-4.2236,-4.2233,-4.2217,-4.2237,-4.2239,-4.2259,-4.2215,-4.2288,-4.2291,-4.2294,-4.2337,-4.2344,-4.235,0,0,0,0,0,-4.226,-4.2287,-4.2276,-4.2277,-4.2279,-4.229,-4.229,-4.2271,-4.2252,-4.2265,-4.2255,-4.2233,-4.2257,-4.2239,-4.2241,-4.2262,-4.2286,-4.229,-4.2294,-4.2334,-4.2343,-4.235,0,0,0,0,0,0,-4.23,-4.2285,-4.2272,-4.2297,-4.2295,-4.2283,-4.2297,-4.2281,-4.2284,-4.2279,-4.2256,-4.2254,-4.2277,-4.2272,-4.2252,-4.2296,-4.2268,-4.2272,-4.2298,-4.2306,-4.2313,-4.2312,-4.2215,0,0,0,0,0,-4.2312,-4.2322,-4.2308,-4.2332,-4.2332,-4.2315,-4.2319,-4.2305,-4.2302,-4.2301,-4.2292,-4.229,-4.2297,-4.2302,-4.2307,-4.2337,-4.2335,-4.2353,-4.236,-4.2365,-4.2368,-4.2385,-4.2393,-4.2308,-4.2307,-4.2307,0,0,-4.2335,-4.2329,-4.2336,-4.234,-4.2336,-4.2347,-4.2314,-4.2327,-4.2335,-4.2302,-4.232,-4.2315,-4.2311,-4.2336,-4.2347,-4.2332,-4.2392,-4.237,-4.2374,-4.2374,-4.2389,-4.2397,-4.2404,-4.231,-4.231,-4.2309,0,0,-4.2384,-4.2381,-4.24,-4.2399,-4.2395,-4.2385,-4.239,-4.2381,-4.2376,-4.2394,-4.2371,-4.2381,-4.2393,-4.2391,-4.2392,-4.2446,-4.2426,-4.2449,-4.2482,-4.2499,-4.2505,-4.2511,-4.253,-4.2537,-4.2452,-4.2453,-4.2453,0,-4.2414,-4.2429,-4.2412,-4.2427,-4.2429,-4.2403,-4.2422,-4.2422,-4.242,-4.2423,-4.2407,-4.2424,-4.2419,-4.2444,-4.2458,-4.246,-4.2465,-4.2448,-4.2506,-4.2512,-4.2517,-4.2534,-4.2541,-4.2455,-4.2455,-4.2455,-4.2454,0,-4.2467,-4.2478,-4.2494,-4.2495,-4.2499,-4.2517,-4.2502,-4.2509,-4.2497,-4.2488,-4.2508,-4.2503,-4.2507,-4.2513,-4.25,-4.2537,-4.2528,-4.251,-4.2481,-4.2528,-4.2544,-4.255,-4.2459,-4.2458,-4.2457,-4.2457,0,0,-4.2536,-4.2529,-4.2535,-4.2536,-4.2532,-4.2541,-4.2558,-4.2564,-4.257,-4.2572,-4.2585,-4.2599,-4.2583,-4.2584,-4.2571,-4.2586,-4.2629,-4.2566,-4.2565,-4.2577,-4.267,-4.2682,-4.269,-4.2617,-4.2619,-4.262,-4.267,0,-4.2582,-4.261,-4.2596,-4.2626,-4.2637,-4.2615,-4.263,-4.263,-4.2624,-4.2632,-4.2626,-4.2635,-4.2613,-4.2614,-4.2628,-4.2621,-4.2647,-4.2617,-4.2629,-4.263,-4.2628,-4.2698,-4.2711,-4.2758,-4.2676,-4.2677,-4.2678,0,-4.2637,-4.2643,-4.2674,-4.2671,-4.2675,-4.2688,-4.2694,-4.2703,-4.2703,-4.2698,-4.2701,-4.2686,-4.2704,-4.2678,-4.2702,-4.2682,-4.2687,-4.2685,-4.2686,-4.2684,-4.2655,-4.2697,-4.2773,-4.2779,-4.2687,-4.2687,-4.2686,0,-4.2684,-4.2699,-4.272,-4.2721,-4.2718,-4.2728,-4.2728,-4.2727,-4.2732,-4.2737,-4.274,-4.2748,-4.2751,-4.2757,-4.2745,-4.2727,-4.2771,-4.2744,-4.2767,-4.2767,-4.2774,-4.2773,-4.285,-4.2781,-4.2781,-4.2781,-4.2781,0,-4.2735,-4.2755,-4.2741,-4.2753,-4.2776,-4.2761,-4.2784,-4.2781,-4.2781,-4.2793,-4.2775,-4.2787,-4.2771,-4.2782,-4.2773,-4.2794,-4.2796,-4.2792,-4.2789,-4.2792,-4.2793,-4.2793,-4.2789,-4.2783,-4.2782,-4.2782,-4.2782,0,-4.2789,-4.278,-4.2802,-4.2798,-4.2798,-4.2815,-4.2812,-4.2824,-4.2818,-4.2834,-4.2837,-4.2828,-4.284,-4.2829,-4.284,-4.2835,-4.2863,-4.2856,-4.2863,-4.286,-4.2883,-4.2881,-4.2961,-4.297,-4.2897,-4.2898,-4.2898,0,-4.2821,-4.2836,-4.2835,-4.2842,-4.2843,-4.2855,-4.2861,-4.2848,-4.2855,-4.2859,-4.2871,-4.2882,-4.2889,-4.291,-4.2904,-4.2913,-4.2906,-4.2933,-4.2906,-4.291,-4.2905,-4.2903,-4.2905,-4.2938,-4.2938,-4.2939,-4.294,0,-4.2878,-4.2874,-4.2883,-4.2892,-4.29,-4.2906,-4.2911,-4.2918,-4.2906,-4.2915,-4.2928,-4.2934,-4.2947,-4.2958,-4.2966,-4.2965,-4.2951,-4.2949,-4.2955,-4.2957,-4.296,-4.2958,-4.2875,-4.2946,-4.2946,-4.2945,-4.2945,-4.2945,-4.2921,-4.2934,-4.2936,-4.2948,-4.2951,-4.2956,-4.2968,-4.2965,-4.2976,-4.2985,-4.2978,-4.2994,-4.2996,-4.3006,-4.3008,-4.302,-4.3008,-4.3016,-4.3018,-4.302,-4.3023,-4.296,-4.3021,-4.3021,-4.3021,-4.3021,-4.3021,0,-4.2977,-4.2978,-4.2989,-4.2997,-4.3007,-4.2995,-4.3,-4.3009,-4.3023,-4.3027,-4.3036,-4.3052,-4.3063,-4.3061,-4.3071,-4.3082,-4.3075,-4.3085,-4.3083,-4.3083,-4.3033,-4.3026,-4.309,-4.309,-4.309,-4.309,-4.309,-4.309,-4.3007,-4.3028,-4.3025,-4.3049,-4.305,-4.3065,-4.307,-4.3075,-4.3079,-4.3097,-4.3107,-4.3106,-4.3107,-4.3119,-4.3129,-4.3128,-4.3132,-4.3144,-4.3141,-4.3093,-4.3086,-4.308,-4.3073,-4.3145,-4.3146,-4.3189,-4.319,-4.319]},{"header":{"parameterUnit":"m.s-1","parameterCategory":1,"la1":30.2991,"la2":30.254,"lo1":-89.0895,"lo2":-89.0444,"dy":0.0017,"dx":0.0017,"nx":28,"ny":28,"refTime":"2025-04-19T21:00:00:Z","depth":0,"parameterNumber":3,"parameterNumberName":"V-component_of_WINDS"},"data":[0,0,0,0,0,0,0,0,0,0,0,0,0,0,0,0,0,0,0,0,0,0,0,0,0,0,0,0,0,0,0,0,0,0,0,0,0,0,0,0,0,0,0,0,0,0,0,0,0,0,0,0,0,0,0,0,0,0,3.6273,3.6273,0,3.6251,3.625,3.625,3.6304,3.6306,3.6308,3.6309,3.628,3.6278,3.6275,0,0,0,0,0,0,0,0,0,0,0,0,0,3.6359,3.6358,3.6273,3.6273,3.6273,3.6251,3.625,3.625,3.6304,3.6306,3.6308,3.631,3.6281,3.6278,3.6275,0,0,0,0,0,0,0,0,0,0,0,0,0,3.6328,3.6357,3.6273,3.6297,3.6299,3.6251,3.625,3.625,3.6303,3.6306,3.6309,3.6311,3.6282,3.6278,3.6275,3.6201,0,0,3.6264,3.6262,0,0,0,0,0,0,0,0,3.6329,3.6324,3.6294,3.6295,3.6297,3.6283,3.627,3.6233,3.6303,3.6301,3.6309,3.6312,3.6279,3.6275,3.6265,3.6199,3.6198,3.6264,3.6261,3.626,3.6259,0,0,0,0,0,0,0,3.6332,3.6326,3.6264,3.6293,3.6295,3.6308,3.6306,3.6263,3.6275,3.6302,3.6306,3.6303,3.628,3.6269,3.6265,3.6198,3.6264,3.626,3.6258,3.6257,3.6074,3.6072,0,0,0,0,0,0,3.6331,3.6327,3.6265,3.6263,3.632,3.6304,3.6302,3.6285,3.6276,3.6277,3.63,3.6305,3.6273,3.6269,3.6264,3.618,3.626,3.6257,3.6254,3.6077,3.6074,3.6071,0,0,0,0,0,0,3.6333,3.6325,3.6266,3.6296,3.629,3.63,3.628,3.6283,3.6272,3.6275,3.6277,3.6287,3.6275,3.6269,3.6218,3.6179,3.6255,3.6252,3.608,3.6076,3.6072,3.6008,0,0,0,0,0,0,3.6335,3.6326,3.6298,3.6296,3.6288,3.622,3.6277,3.6281,3.6266,3.6272,3.6263,3.6264,3.6277,3.6223,3.6214,3.6176,3.6249,3.6083,3.6078,3.6073,3.6014,3.6002,3.5993,0,0,0,0,0,3.6338,3.6279,3.6296,3.6288,3.6254,3.6218,3.6213,3.6231,3.6263,3.6235,3.6238,3.6264,3.6185,3.6217,3.6208,3.6168,3.6086,3.608,3.6074,3.6018,3.6005,3.5993,0,0,0,0,0,0,3.6273,3.6279,3.6298,3.6236,3.6227,3.6227,3.6192,3.6215,3.6194,3.6201,3.6222,3.622,3.6164,3.6161,3.6196,3.6098,3.6141,3.6132,3.6102,3.6089,3.6079,3.6081,3.6246,0,0,0,0,0,3.6252,3.6224,3.6229,3.6174,3.6169,3.6181,3.6166,3.6181,3.6171,3.6166,3.6165,3.6153,3.6126,3.6107,3.6082,3.6014,3.6013,3.5982,3.5972,3.5963,3.5955,3.5922,3.5909,3.6051,3.6051,3.6051,0,0,3.6207,3.6207,3.6187,3.6161,3.6156,3.6125,3.6177,3.6142,3.6119,3.616,3.6113,3.6112,3.6099,3.604,3.6014,3.6035,3.5917,3.5955,3.5948,3.5945,3.5915,3.5901,3.5889,3.6046,3.6047,3.6048,0,0,3.6111,3.6107,3.6062,3.6057,3.6049,3.6058,3.6047,3.6045,3.6047,3.6,3.6031,3.6004,3.5956,3.5948,3.5936,3.5841,3.5865,3.5832,3.5777,3.5744,3.5733,3.5724,3.5691,3.5679,3.5825,3.5825,3.5824,0,3.6055,3.6012,3.6036,3.6,3.5988,3.6028,3.5983,3.5975,3.5958,3.5949,3.5974,3.5918,3.5912,3.5853,3.583,3.5819,3.5808,3.5833,3.5733,3.5724,3.5715,3.5684,3.5672,3.5821,3.5821,3.5822,3.5822,0,3.5946,3.5916,3.588,3.5867,3.5852,3.5811,3.5828,3.5809,3.5827,3.5834,3.5787,3.5782,3.5758,3.5745,3.576,3.5689,3.5703,3.573,3.5774,3.5697,3.5669,3.5657,3.5815,3.5817,3.5818,3.5819,0,0,3.5805,3.5809,3.5795,3.5791,3.5787,3.5764,3.5726,3.5705,3.569,3.5677,3.5646,3.5607,3.5634,3.5621,3.5636,3.5607,3.5535,3.5639,3.5639,3.5621,3.5459,3.5439,3.5425,3.5551,3.5549,3.5547,3.546,0,3.5711,3.5649,3.5671,3.5606,3.558,3.5619,3.5586,3.5579,3.5586,3.5563,3.5569,3.5542,3.5578,3.5572,3.5545,3.5549,3.5503,3.5556,3.5523,3.5521,3.5525,3.541,3.5388,3.5306,3.5449,3.5447,3.5446,0,3.5593,3.558,3.5514,3.5518,3.5508,3.5478,3.5463,3.5441,3.5435,3.5442,3.5431,3.5453,3.5416,3.546,3.541,3.5446,3.5434,3.5435,3.5432,3.543,3.5479,3.5405,3.5279,3.5268,3.5428,3.543,3.5431,0,3.5499,3.5465,3.5422,3.5417,3.542,3.5399,3.5399,3.5396,3.5383,3.537,3.5362,3.5343,3.5333,3.5317,3.5334,3.5364,3.5282,3.5327,3.5287,3.5286,3.5267,3.5268,3.5139,3.5258,3.5258,3.5258,3.5259,0,3.5393,3.5351,3.5381,3.5355,3.531,3.5336,3.529,3.5294,3.5292,3.5267,3.5298,3.5274,3.5297,3.5274,3.5287,3.5245,3.5239,3.5244,3.5247,3.5241,3.5241,3.5234,3.524,3.5255,3.5256,3.5256,3.5257,0,3.528,3.5298,3.5255,3.5263,3.5264,3.5231,3.5237,3.5213,3.5223,3.5191,3.5185,3.52,3.5175,3.5191,3.5165,3.5173,3.5119,3.513,3.5122,3.5125,3.5085,3.5089,3.4946,3.493,3.5059,3.5057,3.5056,0,3.5211,3.5181,3.5188,3.5175,3.5174,3.5151,3.514,3.5165,3.5151,3.5145,3.5122,3.5101,3.5085,3.5045,3.5052,3.5034,3.5045,3.4997,3.5042,3.5038,3.5046,3.5049,3.5047,3.4987,3.4986,3.4985,3.4984,0,3.5088,3.51,3.5084,3.5071,3.5058,3.5048,3.5041,3.5028,3.5054,3.5037,3.5015,3.5003,3.4979,3.4958,3.4944,3.4943,3.4967,3.497,3.496,3.4953,3.495,3.4953,3.5098,3.4973,3.4974,3.4974,3.4975,3.4976,3.4996,3.4973,3.4975,3.4956,3.4955,3.4948,3.4928,3.4937,3.4919,3.4903,3.4918,3.4892,3.4889,3.4872,3.4869,3.4848,3.4867,3.4852,3.4848,3.4844,3.484,3.4954,3.4845,3.4845,3.4845,3.4846,3.4846,0,3.4876,3.4881,3.4864,3.4855,3.4841,3.4869,3.4863,3.4849,3.4826,3.4823,3.4809,3.4784,3.4765,3.4772,3.4756,3.4738,3.4749,3.4732,3.4734,3.4734,3.4822,3.4834,3.4724,3.4724,3.4724,3.4724,3.4724,3.4724,3.4812,3.4775,3.4787,3.4749,3.4754,3.473,3.4725,3.4719,3.4718,3.4689,3.4675,3.4681,3.4683,3.4667,3.4651,3.4654,3.4647,3.4626,3.4633,3.4715,3.4727,3.4739,3.475,3.4624,3.4624,3.4547,3.4546,3.4546]}]]